Погода в Шатрове

Россия / Курганская область     56°31′10″N   64°37′59″E
темп.,
°C
ветер,
м/с
пор.,
м/с
влажн.,
%
обл.,
%
осадки,
мм/ч
давл.,
гПа
погр.,
м
28 июня, вт
вт2823:00+13зюз3574100 0.0 100499
02:00+11юз1288100 0.3 100326
05:00+10св3598100 3.1 1002224
08:00+9с4696100 0.2 1002436
11:00+9ссз4695100 0.4 1003492
14:00+8ссз6993100 0.3 1005554
17:00+8сз589073 0.3 1006595
20:00+8ссз5989100 0.3 1005577
29 июня, ср
ср2923:00+7сз51186100 0.4 1004452
02:00+6сз6128899 0.1 1003491
05:00+6сз5991100 0.1 10031107
08:00+6зсз61196100 1.1 10011065
11:00+7сз81194100 1.8 10011109
14:00+7сз81395100 1.6 10031173
17:00+9ссз51289100 1.8 1004781
20:00+10зюз23888 0.0 1004154
30 июня, чт
чт3023:00+7з49895 0.0 1003141
02:00+7сз48885 0.0 1003124
05:00+6сз358511 0.0 100374
08:00+11сз2474100 0.0 1004229
11:00+14ссз336233 0.0 1004894
14:00+15сз455827 0.3 10041552
17:00+15ссз576074 0.6 10051544
20:00+12сз48725 0.1 1006295
1 июля, пт
пт123:00+6ссз48930 0.1 1008216
02:00+4зсз499724 0.0 1008234
05:00+6зсз51089100 0.0 1007380
08:00+7зсз5997100 2.0 1007403
11:00+8зсз4797100 5.6 1008453
14:00+8зсз4797100 2.1 1008420
17:00+9зюз3598100 4.1 1008180
20:00+10зюз4796100 0.1 1008245
2 июля, сб
сб223:00+9зюз4896100 0.1 1008195
02:00+10з3595100 0.0 1007100
05:00+10сз3491100 0.0 100667
08:00+12сз3587100 0.0 1006176
11:00+17ссз346145 0.0 1006662
14:00+17зсз3564100 0.0 1005795
17:00+18ссз356485 0.2 10051353
20:00+15зсз3376100 0.0 100444